[[{"header":{"parameterUnit":"m.s-1","parameterCategory":2,"la1":30.2991,"la2":30.254,"lo1":-89.0895,"lo2":-89.0444,"dy":0.0017,"dx":0.0017,"nx":28,"ny":28,"refTime":"2024-07-02T21:00:00:Z","depth":"0","parameterNumber":2,"parameterNumberName":"U-component_of_CURRENTS"},"data":[0,0,0,0,0,0,0,0,0,0,0,0,0,0,0,0,0,0,0,0,0,0,0,0,0,0,0,0,0,0,0,0,0,0,0,0,0,0,0,0,0,0,0,0,0,0,0,0,0,0,0,0,0,0,0,0,0,0,-0.2235,-0.2236,0,-0.2258,-0.2258,-0.2258,-0.2228,-0.2227,-0.2227,-0.2226,-0.2255,-0.2257,-0.2258,0,0,0,0,0,0,0,0,0,0,0,0,0,-0.2157,-0.2159,-0.2235,-0.2236,-0.2236,-0.2258,-0.2258,-0.2258,-0.2228,-0.2227,-0.2226,-0.2225,-0.2255,-0.2257,-0.2258,0,0,0,0,0,0,0,0,0,0,0,0,0,-0.2184,-0.2159,-0.2235,-0.2226,-0.2226,-0.2258,-0.2258,-0.2258,-0.2229,-0.2227,-0.2226,-0.2225,-0.2254,-0.2256,-0.2259,-0.2298,0,0,-0.2266,-0.2267,0,0,0,0,0,0,0,0,-0.2183,-0.2187,-0.2227,-0.2227,-0.2226,-0.2241,-0.2241,-0.2273,-0.2229,-0.2225,-0.2226,-0.2224,-0.2254,-0.2256,-0.2259,-0.23,-0.2301,-0.2266,-0.2267,-0.2269,-0.2269,0,0,0,0,0,0,0,-0.2181,-0.2186,-0.2242,-0.2228,-0.2227,-0.2218,-0.222,-0.2247,-0.2244,-0.2225,-0.2224,-0.2231,-0.2253,-0.2257,-0.226,-0.2302,-0.2266,-0.2268,-0.227,-0.227,-0.2314,-0.2314,0,0,0,0,0,0,-0.2186,-0.2185,-0.2241,-0.2242,-0.2204,-0.222,-0.2223,-0.2236,-0.2244,-0.2245,-0.2232,-0.2229,-0.2254,-0.2257,-0.2261,-0.2287,-0.2268,-0.2271,-0.2272,-0.2314,-0.2314,-0.2314,0,0,0,0,0,0,-0.2184,-0.2191,-0.224,-0.2215,-0.2221,-0.2223,-0.2238,-0.2237,-0.2236,-0.2249,-0.2249,-0.2232,-0.2253,-0.2258,-0.2284,-0.2288,-0.2272,-0.2274,-0.2315,-0.2314,-0.2314,-0.2352,0,0,0,0,0,0,-0.2182,-0.219,-0.2197,-0.2216,-0.2223,-0.2263,-0.2239,-0.2238,-0.2244,-0.2241,-0.225,-0.2251,-0.2252,-0.2281,-0.2286,-0.2291,-0.2276,-0.2315,-0.2315,-0.2314,-0.2351,-0.2353,-0.2355,0,0,0,0,0,-0.2179,-0.2195,-0.2198,-0.2204,-0.2234,-0.2265,-0.2267,-0.2262,-0.2245,-0.2254,-0.2256,-0.225,-0.228,-0.2284,-0.229,-0.2296,-0.2315,-0.2315,-0.2314,-0.2351,-0.2353,-0.2355,0,0,0,0,0,0,-0.216,-0.2195,-0.2197,-0.2222,-0.2244,-0.226,-0.2267,-0.2266,-0.2274,-0.2268,-0.2268,-0.2271,-0.2291,-0.2288,-0.2291,-0.2301,-0.2289,-0.229,-0.2314,-0.2317,-0.2318,-0.2332,-0.2278,0,0,0,0,0,-0.2163,-0.2183,-0.2215,-0.2232,-0.2246,-0.2257,-0.2266,-0.2268,-0.2281,-0.2282,-0.2286,-0.2286,-0.2296,-0.2302,-0.2312,-0.2335,-0.2316,-0.2333,-0.2335,-0.2336,-0.2349,-0.2321,-0.2322,-0.2312,-0.2312,-0.2312,0,0,-0.2156,-0.218,-0.2188,-0.2229,-0.2242,-0.2276,-0.2258,-0.2279,-0.23,-0.2287,-0.2307,-0.2303,-0.2304,-0.2321,-0.2327,-0.232,-0.2326,-0.2336,-0.2338,-0.2349,-0.2321,-0.2322,-0.2323,-0.2312,-0.2312,-0.2312,0,0,-0.2164,-0.218,-0.2204,-0.2232,-0.2267,-0.2283,-0.2291,-0.2314,-0.2314,-0.2342,-0.2327,-0.2331,-0.2346,-0.2347,-0.235,-0.237,-0.234,-0.2355,-0.2379,-0.2352,-0.2353,-0.2354,-0.2323,-0.232,-0.2353,-0.2353,-0.2353,0,-0.2153,-0.2193,-0.2214,-0.2253,-0.2275,-0.2289,-0.2323,-0.2339,-0.2362,-0.2363,-0.2351,-0.2353,-0.2361,-0.2375,-0.238,-0.2377,-0.2348,-0.2376,-0.2356,-0.2356,-0.2357,-0.2324,-0.2321,-0.2355,-0.2354,-0.2354,-0.2354,0,-0.2184,-0.222,-0.2237,-0.2293,-0.2321,-0.235,-0.2386,-0.2401,-0.2399,-0.2405,-0.2408,-0.2409,-0.2403,-0.24,-0.2406,-0.2405,-0.2379,-0.2365,-0.2355,-0.236,-0.2325,-0.2321,-0.2357,-0.2357,-0.2356,-0.2356,0,0,-0.2143,-0.2241,-0.2244,-0.2275,-0.2342,-0.2363,-0.241,-0.2444,-0.2454,-0.2459,-0.2457,-0.2474,-0.2451,-0.2452,-0.244,-0.2426,-0.2409,-0.24,-0.2398,-0.2377,-0.2337,-0.2235,-0.222,-0.2383,-0.2383,-0.2383,-0.231,0,-0.2155,-0.2226,-0.2277,-0.2334,-0.237,-0.2411,-0.245,-0.2481,-0.2491,-0.2495,-0.2482,-0.2481,-0.2476,-0.2464,-0.2453,-0.2422,-0.2402,-0.243,-0.2329,-0.2326,-0.2241,-0.2213,-0.2085,-0.2001,-0.2306,-0.2305,-0.2305,0,-0.2164,-0.2209,-0.2269,-0.235,-0.2368,-0.2403,-0.2446,-0.2485,-0.251,-0.2516,-0.251,-0.2499,-0.2493,-0.2476,-0.2426,-0.2437,-0.2398,-0.2368,-0.2364,-0.2256,-0.2216,-0.2046,-0.1982,-0.1978,-0.2298,-0.2299,-0.2299,0,-0.2101,-0.2201,-0.224,-0.2269,-0.2364,-0.2384,-0.2424,-0.247,-0.2491,-0.2515,-0.2516,-0.2507,-0.2482,-0.2445,-0.2394,-0.2405,-0.2318,-0.232,-0.2189,-0.2181,-0.2047,-0.2027,-0.1975,-0.2279,-0.228,-0.228,-0.228,0,-0.2085,-0.2113,-0.2209,-0.2224,-0.2262,-0.2339,-0.2368,-0.2414,-0.2456,-0.2417,-0.2505,-0.2441,-0.2471,-0.2422,-0.2384,-0.226,-0.2303,-0.2187,-0.2151,-0.2054,-0.2036,-0.2006,-0.2053,-0.2277,-0.2278,-0.2278,-0.2279,0,-0.2005,-0.2075,-0.2122,-0.2211,-0.2234,-0.2251,-0.233,-0.2318,-0.2408,-0.2354,-0.2356,-0.2393,-0.2302,-0.2326,-0.2251,-0.2222,-0.2092,-0.2085,-0.1969,-0.1921,-0.1785,-0.1838,-0.1776,-0.173,-0.1924,-0.1921,-0.1919,0,-0.197,-0.1988,-0.208,-0.2072,-0.2103,-0.2146,-0.2138,-0.2258,-0.2222,-0.2247,-0.2164,-0.2158,-0.199,-0.1925,-0.1924,-0.186,-0.1924,-0.1749,-0.1752,-0.1748,-0.1784,-0.1848,-0.1821,-0.159,-0.1585,-0.1581,-0.1578,0,-0.1882,-0.1918,-0.194,-0.1931,-0.1925,-0.1929,-0.1918,-0.1904,-0.1951,-0.1901,-0.172,-0.1608,-0.1589,-0.1461,-0.1525,-0.1491,-0.1708,-0.1658,-0.1681,-0.1536,-0.1577,-0.1523,-0.1683,-0.1541,-0.1544,-0.1547,-0.1549,-0.1551,-0.1786,-0.1772,-0.1778,-0.1745,-0.1727,-0.1624,-0.1562,-0.1513,-0.1411,-0.1246,-0.1232,-0.0987,-0.1075,-0.1104,-0.1128,-0.1259,-0.1364,-0.1262,-0.1333,-0.1403,-0.1342,-0.1417,-0.122,-0.1222,-0.1223,-0.1224,-0.1226,0,-0.1613,-0.1592,-0.1568,-0.1503,-0.138,-0.1439,-0.1329,-0.1212,-0.0976,-0.0807,-0.0598,-0.0421,-0.0475,-0.0683,-0.0961,-0.0972,-0.1001,-0.101,-0.1086,-0.1076,-0.1136,-0.1102,-0.0837,-0.0837,-0.0837,-0.0837,-0.0837,-0.0837,-0.1513,-0.1409,-0.1389,-0.1149,-0.1088,-0.09,-0.0795,-0.0638,-0.0498,-0.016,0.0035,0.0156,-0.0163,-0.0686,-0.0933,-0.0916,-0.0956,-0.091,-0.0998,-0.1064,-0.1094,-0.1123,-0.1101,-0.0839,-0.0839,-0.0862,-0.0862,-0.0862]},{"header":{"parameterUnit":"m.s-1","parameterCategory":2,"la1":30.2991,"la2":30.254,"lo1":-89.0895,"lo2":-89.0444,"dy":0.0017,"dx":0.0017,"nx":28,"ny":28,"refTime":"2024-07-02T21:00:00:Z","depth":"0","parameterNumber":3,"parameterNumberName":"V-component_of_CURRENTS"},"data":[0,0,0,0,0,0,0,0,0,0,0,0,0,0,0,0,0,0,0,0,0,0,0,0,0,0,0,0,0,0,0,0,0,0,0,0,0,0,0,0,0,0,0,0,0,0,0,0,0,0,0,0,0,0,0,0,0,0,-0.015,-0.015,0,-0.0076,-0.0075,-0.0074,-0.0015,-0.0014,-0.0014,-0.0013,0.0271,0.0278,0.0285,0,0,0,0,0,0,0,0,0,0,0,0,0,-0.0188,-0.0187,-0.0151,-0.015,-0.0149,-0.0076,-0.0075,-0.0074,-0.0015,-0.0014,-0.0014,-0.0013,0.0269,0.0278,0.0286,0,0,0,0,0,0,0,0,0,0,0,0,0,-0.0147,-0.0187,-0.0151,-0.0112,-0.0108,-0.0076,-0.0075,-0.0074,-0.0015,-0.0014,-0.0013,-0.0013,0.0266,0.0277,0.0287,0.034,0,0,0.032,0.0325,0,0,0,0,0,0,0,0,-0.0149,-0.0145,-0.0118,-0.0114,-0.011,-0.0055,0.0016,0.0075,-0.0015,-0.0048,-0.0013,-0.0012,0.018,0.0198,0.021,0.0353,0.0365,0.0321,0.0328,0.0332,0.0335,0,0,0,0,0,0,0,-0.0152,-0.0148,-0.0119,-0.0118,-0.0112,-0.008,-0.0073,0.0027,0.0066,-0.0045,-0.0041,-0.0036,0.0184,0.0199,0.0217,0.0369,0.0321,0.033,0.0337,0.0341,0.0598,0.0599,0,0,0,0,0,0,-0.0168,-0.0151,-0.0122,-0.0117,-0.013,-0.008,-0.0073,-0.0072,0.0061,0.0079,-0.0036,-0.0033,0.018,0.0205,0.0228,0.0291,0.0332,0.0342,0.0348,0.0598,0.0598,0.0599,0,0,0,0,0,0,-0.0169,-0.0167,-0.0125,-0.0133,-0.0126,-0.0081,-0.008,-0.0071,-0.0055,0.0065,0.0088,-0.003,0.0182,0.0213,0.0305,0.0304,0.0347,0.0357,0.0597,0.0598,0.0599,0.0424,0,0,0,0,0,0,-0.0171,-0.0168,-0.0173,-0.0135,-0.0126,-0.0112,-0.008,-0.007,-0.0053,-0.0049,0.0079,0.0105,0.0185,0.0288,0.0315,0.0319,0.0365,0.0597,0.0598,0.0598,0.043,0.0419,0.041,0,0,0,0,0,-0.0173,-0.0187,-0.0174,-0.0171,-0.0136,-0.0113,-0.0105,-0.0069,-0.0054,-0.0051,0.0027,0.0102,0.0313,0.0296,0.0328,0.0336,0.0597,0.0597,0.0598,0.0434,0.0421,0.041,0,0,0,0,0,0,-0.0206,-0.0181,-0.0167,-0.0172,-0.0147,-0.0103,-0.01,-0.0076,-0.0016,-0.0006,0.0104,0.0136,0.0222,0.0306,0.0284,0.0415,0.0469,0.0477,0.0334,0.0323,0.0313,0.0299,0.0374,0,0,0,0,0,-0.0218,-0.0223,-0.0188,-0.0194,-0.0184,-0.0144,-0.0131,-0.0107,-0.0052,-0.0027,0.0056,0.0157,0.0251,0.0303,0.0403,0.047,0.0527,0.05,0.049,0.0481,0.0493,0.0537,0.053,0.0602,0.0602,0.0602,0,0,-0.0234,-0.0221,-0.0223,-0.0201,-0.0179,-0.0173,-0.0134,-0.0121,-0.0109,0.0001,0.0047,0.0133,0.0264,0.0333,0.038,0.0401,0.0489,0.0482,0.0472,0.0491,0.0537,0.0529,0.0523,0.0602,0.0602,0.0602,0,0,-0.0272,-0.0255,-0.0272,-0.0257,-0.0232,-0.02,-0.0201,-0.0159,-0.0132,-0.0082,0.0001,0.007,0.0213,0.0285,0.0348,0.035,0.0439,0.0393,0.0327,0.0366,0.036,0.0355,0.0396,0.0396,0.038,0.038,0.038,0,-0.0292,-0.031,-0.0273,-0.0284,-0.0279,-0.0218,-0.0232,-0.0193,-0.0128,-0.0102,-0.008,0.0095,0.0189,0.0278,0.027,0.0326,0.0365,0.0348,0.0348,0.0344,0.0342,0.0387,0.0389,0.0372,0.0373,0.0374,0.0374,0,-0.0341,-0.0355,-0.0363,-0.0356,-0.034,-0.0343,-0.0289,-0.0261,-0.0221,-0.0178,-0.0094,0.0009,0.0114,0.0147,0.0211,0.0253,0.0291,0.0325,0.036,0.0323,0.0374,0.0379,0.036,0.0363,0.0365,0.0367,0,0,-0.039,-0.0399,-0.0404,-0.0418,-0.0382,-0.0376,-0.0346,-0.0302,-0.028,-0.0214,-0.0182,-0.0059,-0.0009,0.0066,0.0147,0.0175,0.0175,0.0231,0.0237,0.0243,0.0262,0.0336,0.035,0.0196,0.0197,0.0197,0.0293,0,-0.0442,-0.0492,-0.0472,-0.0505,-0.0522,-0.046,-0.0438,-0.0385,-0.0323,-0.0271,-0.017,-0.0096,-0.0035,0.0005,0.0041,0.0167,0.0187,0.0147,0.0327,0.0333,0.0377,0.0358,0.0432,0.0529,0.0299,0.03,0.0301,0,-0.0499,-0.0525,-0.0577,-0.0585,-0.0586,-0.0585,-0.0537,-0.0511,-0.0409,-0.0361,-0.0279,-0.0183,-0.0092,-0.0056,0.0099,0.007,0.015,0.0224,0.0229,0.0371,0.0418,0.054,0.0549,0.0686,0.031,0.0309,0.0309,0,-0.0561,-0.0598,-0.0645,-0.0649,-0.0639,-0.064,-0.0623,-0.0541,-0.0519,-0.0414,-0.0376,-0.0251,-0.0168,-0.0067,0.0107,0.0097,0.0269,0.0277,0.0414,0.0421,0.0562,0.0581,0.0708,0.0356,0.0356,0.0355,0.0355,0,-0.0625,-0.0662,-0.068,-0.0707,-0.0746,-0.0712,-0.0721,-0.0672,-0.0605,-0.055,-0.0433,-0.0339,-0.0169,-0.0031,0.0087,0.0287,0.0257,0.0413,0.0453,0.0505,0.0516,0.0708,0.0757,0.0359,0.0358,0.0357,0.0357,0,-0.0679,-0.0697,-0.0751,-0.0769,-0.0779,-0.0805,-0.0803,-0.0782,-0.072,-0.0641,-0.0609,-0.0406,-0.0193,-0.0027,0.0182,0.0288,0.0555,0.0516,0.0569,0.0614,0.0864,0.09,0.1085,0.1197,0.0678,0.068,0.0682,0,-0.0709,-0.0748,-0.0805,-0.0823,-0.0834,-0.0867,-0.0864,-0.0841,-0.0802,-0.0647,-0.0589,-0.0377,-0.0135,0.0186,0.0383,0.0597,0.0688,0.0773,0.0769,0.09,0.0969,0.0974,0.1055,0.088,0.0884,0.0887,0.0889,0,-0.075,-0.0773,-0.0808,-0.0847,-0.0869,-0.09,-0.0894,-0.0897,-0.0809,-0.0723,-0.0505,-0.0304,0.0051,0.0398,0.0662,0.0776,0.0904,0.0839,0.0968,0.114,0.1165,0.1284,0.0788,0.0915,0.0912,0.091,0.0909,0.0908,-0.075,-0.078,-0.0802,-0.0833,-0.0861,-0.0857,-0.085,-0.0807,-0.0737,-0.053,-0.0415,-0.008,0.0414,0.0836,0.093,0.1198,0.1134,0.1293,0.1324,0.1315,0.1435,0.0995,0.117,0.1169,0.1169,0.1168,0.1167,0,-0.068,-0.071,-0.0762,-0.0775,-0.0769,-0.0798,-0.0786,-0.0723,-0.0584,-0.0416,-0.0196,0.0354,0.0823,0.1167,0.1563,0.1685,0.1689,0.1743,0.1771,0.1831,0.1451,0.1473,0.1731,0.1731,0.1731,0.173,0.173,0.173,-0.0622,-0.0633,-0.0668,-0.0642,-0.0649,-0.0604,-0.0578,-0.0486,-0.0374,-0.0032,0.0251,0.0496,0.1074,0.1689,0.2057,0.2085,0.2232,0.2192,0.2265,0.1998,0.1957,0.1918,0.1952,0.2306,0.2307,0.2658,0.2662,0.2664]}],[{"header":{"parameterUnit":"m.s-1","parameterCategory":2,"la1":30.2991,"la2":30.254,"lo1":-89.0895,"lo2":-89.0444,"dy":0.0017,"dx":0.0017,"nx":28,"ny":28,"refTime":"2024-07-02T21:00:00:Z","depth":"2","parameterNumber":2,"parameterNumberName":"U-component_of_CURRENTS"},"data":[0,0,0,0,0,0,0,0,0,0,0,0,0,0,0,0,0,0,0,0,0,0,0,0,0,0,0,0,0,0,0,0,0,0,0,0,0,0,0,0,0,0,0,0,0,0,0,0,0,0,0,0,0,0,0,0,0,0,-0.2194,-0.2194,0,-0.2224,-0.2224,-0.2224,-0.2204,-0.2203,-0.2203,-0.2202,-0.2213,-0.2214,-0.2215,0,0,0,0,0,0,0,0,0,0,0,0,0,-0.2116,-0.2117,-0.2194,-0.2194,-0.2195,-0.2224,-0.2224,-0.2224,-0.2204,-0.2203,-0.2202,-0.2202,-0.2213,-0.2214,-0.2215,0,0,0,0,0,0,0,0,0,0,0,0,0,-0.2146,-0.2118,-0.2193,-0.219,-0.219,-0.2224,-0.2224,-0.2225,-0.2204,-0.2203,-0.2202,-0.2201,-0.2212,-0.2214,-0.2215,-0.2246,0,0,-0.2219,-0.222,0,0,0,0,0,0,0,0,-0.2145,-0.2149,-0.219,-0.219,-0.219,-0.2211,-0.2201,-0.2232,-0.2205,-0.2197,-0.2202,-0.2201,-0.2213,-0.2214,-0.2219,-0.2246,-0.2247,-0.222,-0.2221,-0.2221,-0.2222,0,0,0,0,0,0,0,-0.2143,-0.2148,-0.2203,-0.219,-0.2191,-0.2186,-0.2189,-0.2207,-0.2208,-0.2197,-0.2196,-0.2204,-0.2212,-0.2218,-0.2219,-0.2247,-0.222,-0.2221,-0.2222,-0.2222,-0.2331,-0.2333,0,0,0,0,0,0,-0.2145,-0.2146,-0.2202,-0.2205,-0.2167,-0.2189,-0.2192,-0.2204,-0.2209,-0.2209,-0.2205,-0.2203,-0.2216,-0.2218,-0.222,-0.2248,-0.2221,-0.2222,-0.2223,-0.2329,-0.2331,-0.2333,0,0,0,0,0,0,-0.2143,-0.215,-0.2201,-0.2177,-0.2183,-0.2191,-0.2205,-0.2205,-0.2208,-0.2215,-0.2214,-0.2208,-0.2215,-0.2218,-0.2233,-0.2248,-0.2223,-0.2224,-0.2326,-0.2329,-0.2332,-0.231,0,0,0,0,0,0,-0.2141,-0.2149,-0.2157,-0.2178,-0.2185,-0.2227,-0.2206,-0.2206,-0.2216,-0.2213,-0.2218,-0.2217,-0.2215,-0.2231,-0.2235,-0.225,-0.2226,-0.2324,-0.2328,-0.2331,-0.2308,-0.2311,-0.2315,0,0,0,0,0,-0.2138,-0.2154,-0.2157,-0.2164,-0.2196,-0.2228,-0.2231,-0.2231,-0.2217,-0.2228,-0.2224,-0.2217,-0.2259,-0.2233,-0.2237,-0.2253,-0.2322,-0.2327,-0.2331,-0.2306,-0.2311,-0.2314,0,0,0,0,0,0,-0.2121,-0.2155,-0.2158,-0.2182,-0.2206,-0.2225,-0.2234,-0.2235,-0.2241,-0.2235,-0.223,-0.2231,-0.2249,-0.2268,-0.224,-0.2303,-0.2295,-0.2301,-0.2275,-0.228,-0.2283,-0.229,-0.2227,0,0,0,0,0,-0.2124,-0.2142,-0.2175,-0.2192,-0.2206,-0.222,-0.2231,-0.2237,-0.2247,-0.2248,-0.225,-0.2263,-0.2275,-0.2287,-0.2301,-0.2334,-0.2322,-0.2356,-0.2359,-0.2362,-0.2375,-0.2352,-0.2353,-0.2348,-0.2348,-0.2348,0,0,-0.2118,-0.2141,-0.2149,-0.2189,-0.2204,-0.2238,-0.2223,-0.2247,-0.2269,-0.225,-0.2271,-0.2266,-0.2285,-0.231,-0.2324,-0.2325,-0.2358,-0.2367,-0.2369,-0.2381,-0.2357,-0.2356,-0.2356,-0.2351,-0.2351,-0.235,0,0,-0.2126,-0.2143,-0.2165,-0.2193,-0.2228,-0.2246,-0.2255,-0.2281,-0.2285,-0.231,-0.2296,-0.2299,-0.2333,-0.2338,-0.2348,-0.2389,-0.2366,-0.2406,-0.2434,-0.241,-0.2409,-0.2408,-0.2379,-0.2376,-0.2418,-0.2418,-0.2418,0,-0.2118,-0.2155,-0.2176,-0.2212,-0.2235,-0.2252,-0.2285,-0.2304,-0.2328,-0.2332,-0.232,-0.2341,-0.2347,-0.2369,-0.2385,-0.2392,-0.2374,-0.2403,-0.2409,-0.2408,-0.2407,-0.2378,-0.2374,-0.2417,-0.2417,-0.2418,-0.2418,0,-0.2147,-0.2182,-0.2198,-0.2251,-0.228,-0.231,-0.2347,-0.2366,-0.2369,-0.2378,-0.2387,-0.2384,-0.2397,-0.2403,-0.2407,-0.2419,-0.2404,-0.2397,-0.2383,-0.2405,-0.2374,-0.2371,-0.2417,-0.2417,-0.2417,-0.2417,0,0,-0.2111,-0.2201,-0.2205,-0.2234,-0.2302,-0.2323,-0.2372,-0.2409,-0.2425,-0.2434,-0.244,-0.2456,-0.2438,-0.2451,-0.2445,-0.2437,-0.2407,-0.2425,-0.2424,-0.237,-0.2347,-0.2247,-0.2233,-0.2389,-0.2388,-0.2388,-0.2321,0,-0.2123,-0.2189,-0.2237,-0.2294,-0.2328,-0.2371,-0.2414,-0.2448,-0.2464,-0.2476,-0.2465,-0.247,-0.2463,-0.2457,-0.2448,-0.2418,-0.24,-0.2426,-0.2359,-0.2358,-0.2243,-0.2227,-0.2069,-0.1987,-0.2317,-0.2316,-0.2316,0,-0.2132,-0.2174,-0.2232,-0.2312,-0.233,-0.2366,-0.2417,-0.2458,-0.2492,-0.2503,-0.2504,-0.2496,-0.2492,-0.2475,-0.2429,-0.2442,-0.2404,-0.2374,-0.237,-0.2286,-0.2251,-0.2026,-0.1968,-0.231,-0.231,-0.2311,-0.2311,0,-0.2075,-0.2169,-0.2208,-0.2236,-0.233,-0.2352,-0.2395,-0.2448,-0.2474,-0.2506,-0.2518,-0.251,-0.2496,-0.2455,-0.2404,-0.2415,-0.2333,-0.2336,-0.2207,-0.22,-0.2059,-0.2039,-0.2296,-0.2296,-0.2296,-0.2296,-0.2297,0,-0.2061,-0.209,-0.218,-0.2195,-0.2232,-0.2312,-0.2344,-0.2393,-0.2449,-0.2484,-0.2513,-0.2523,-0.249,-0.2446,-0.2399,-0.2279,-0.2323,-0.2204,-0.2172,-0.2047,-0.2028,-0.2314,-0.2317,-0.2294,-0.2294,-0.2295,-0.2295,0,-0.1988,-0.2054,-0.2097,-0.2184,-0.2205,-0.2221,-0.2304,-0.2324,-0.2406,-0.245,-0.2462,-0.2509,-0.2439,-0.238,-0.2302,-0.2255,-0.2164,-0.2112,-0.1964,-0.1915,-0.2052,-0.2055,-0.1964,-0.196,-0.1956,-0.1953,-0.1951,0,-0.1957,-0.1973,-0.2052,-0.2056,-0.2088,-0.213,-0.2154,-0.2267,-0.23,-0.2441,-0.2445,-0.2425,-0.2376,-0.2212,-0.2078,-0.193,-0.203,-0.1754,-0.1749,-0.2038,-0.2016,-0.2025,-0.2033,-0.1554,-0.1548,-0.1544,-0.154,0,-0.1875,-0.1904,-0.1923,-0.194,-0.196,-0.2007,-0.2061,-0.2097,-0.2248,-0.2295,-0.2355,-0.2336,-0.2186,-0.1947,-0.1762,-0.1675,-0.1762,-0.1656,-0.1977,-0.1664,-0.1645,-0.1626,-0.1649,-0.15,-0.1504,-0.1507,-0.1509,-0.151,-0.1788,-0.1775,-0.1793,-0.1799,-0.1836,-0.188,-0.1878,-0.1951,-0.2005,-0.2048,-0.2151,-0.2047,-0.2033,-0.1615,-0.1479,-0.1323,-0.1447,-0.1408,-0.1424,-0.1445,-0.1412,-0.1387,-0.1187,-0.1189,-0.1191,-0.1192,-0.1194,0,-0.1671,-0.1659,-0.1648,-0.1669,-0.1662,-0.1745,-0.1801,-0.1775,-0.1789,-0.1798,-0.178,-0.161,-0.1424,-0.1346,-0.1031,-0.0982,-0.0995,-0.095,-0.0983,-0.1022,-0.1057,-0.1007,-0.0673,-0.0672,-0.067,-0.0669,0,0,-0.1599,-0.1538,-0.1532,-0.1478,-0.151,-0.1516,-0.1531,-0.1471,-0.144,-0.134,-0.1253,-0.1341,-0.1358,-0.1075,-0.0974,-0.0756,-0.089,-0.0708,-0.1123,-0.1203,-0.1237,-0.131,-0.1274,0,0,0,0,0]},{"header":{"parameterUnit":"m.s-1","parameterCategory":2,"la1":30.2991,"la2":30.254,"lo1":-89.0895,"lo2":-89.0444,"dy":0.0017,"dx":0.0017,"nx":28,"ny":28,"refTime":"2024-07-02T21:00:00:Z","depth":"2","parameterNumber":3,"parameterNumberName":"V-component_of_CURRENTS"},"data":[0,0,0,0,0,0,0,0,0,0,0,0,0,0,0,0,0,0,0,0,0,0,0,0,0,0,0,0,0,0,0,0,0,0,0,0,0,0,0,0,0,0,0,0,0,0,0,0,0,0,0,0,0,0,0,0,0,0,-0.0198,-0.0197,0,-0.0125,-0.0124,-0.0123,-0.0066,-0.0066,-0.0065,-0.0065,0.0006,0.0007,0.0009,0,0,0,0,0,0,0,0,0,0,0,0,0,-0.0237,-0.0237,-0.0198,-0.0197,-0.0196,-0.0125,-0.0124,-0.0123,-0.0066,-0.0066,-0.0065,-0.0065,0.0005,0.0007,0.0009,0,0,0,0,0,0,0,0,0,0,0,0,0,-0.0197,-0.0237,-0.0198,-0.016,-0.0156,-0.0126,-0.0124,-0.0123,-0.0066,-0.0066,-0.0065,-0.0064,0.0005,0.0007,0.0009,0.001,0,0,0.0016,0.0017,0,0,0,0,0,0,0,0,-0.0199,-0.0195,-0.0166,-0.0163,-0.0158,-0.0105,-0.0112,-0.0079,-0.0066,-0.0099,-0.0065,-0.0064,-0.0033,-0.0028,-0.0013,0.0013,0.0016,0.0016,0.0017,0.0018,0.0019,0,0,0,0,0,0,0,-0.0202,-0.0198,-0.0167,-0.0166,-0.0161,-0.013,-0.0124,-0.0106,-0.0069,-0.0096,-0.0092,-0.0087,-0.003,-0.0016,-0.0011,0.0017,0.0016,0.0018,0.0019,0.002,0.0053,0.0053,0,0,0,0,0,0,-0.0217,-0.0201,-0.017,-0.0165,-0.0179,-0.013,-0.0123,-0.0122,-0.0069,-0.0061,-0.0087,-0.0084,-0.002,-0.0014,-0.0009,0.0017,0.0018,0.002,0.0022,0.0054,0.0053,0.0053,0,0,0,0,0,0,-0.0219,-0.0216,-0.0173,-0.0182,-0.0175,-0.0131,-0.0129,-0.0121,-0.0105,-0.0063,-0.0054,-0.008,-0.0019,-0.0012,0.0021,0.002,0.0021,0.0023,0.0054,0.0054,0.0053,0.0055,0,0,0,0,0,0,-0.022,-0.0217,-0.0221,-0.0184,-0.0175,-0.016,-0.013,-0.012,-0.0103,-0.0098,-0.0054,-0.0047,-0.0018,0.0018,0.0023,0.0023,0.0025,0.0055,0.0054,0.0053,0.0055,0.0054,0.0053,0,0,0,0,0,-0.0222,-0.0235,-0.0222,-0.0218,-0.0183,-0.0161,-0.0154,-0.0119,-0.0104,-0.0101,-0.0059,-0.0048,0.0016,0.002,0.0026,0.0026,0.0055,0.0054,0.0053,0.0056,0.0055,0.0054,0,0,0,0,0,0,-0.0254,-0.0229,-0.0215,-0.0219,-0.0194,-0.0152,-0.0149,-0.0125,-0.009,-0.0086,-0.0042,-0.0031,-0.0006,0.0004,0.0008,0.003,0.0032,0.0032,0.0031,0.003,0.0029,0.0014,0.0027,0,0,0,0,0,-0.0266,-0.0269,-0.0235,-0.0239,-0.023,-0.0191,-0.0178,-0.0155,-0.012,-0.0104,-0.007,-0.0039,-0.0007,0.0008,0.0032,0.0048,0.0073,0.0046,0.0045,0.0044,0.0034,0.0087,0.009,0.005,0.005,0.005,0,0,-0.028,-0.0267,-0.0268,-0.0247,-0.0225,-0.0219,-0.0181,-0.0168,-0.0156,-0.0104,-0.0078,-0.004,-0.0004,0.0023,0.0032,0.0033,0.0069,0.0043,0.0043,0.0033,0.0086,0.009,0.0094,0.0049,0.0049,0.0049,0,0,-0.0316,-0.0299,-0.0314,-0.0299,-0.0275,-0.0245,-0.0245,-0.0205,-0.0179,-0.0151,-0.0105,-0.0061,-0.003,0.0014,0.0035,0.0038,0.0063,0.0031,0.0018,0.0069,0.0074,0.0078,0.0121,0.0128,0.003,0.003,0.003,0,-0.0334,-0.0348,-0.0314,-0.0324,-0.0317,-0.0261,-0.0273,-0.0237,-0.0189,-0.0165,-0.0151,-0.0069,-0.0033,0.0021,0.0026,0.0038,0.0064,0.0026,0.0071,0.0075,0.0079,0.0122,0.0131,0.003,0.003,0.003,0.003,0,-0.0379,-0.0389,-0.0397,-0.0388,-0.0373,-0.0375,-0.0324,-0.0297,-0.0259,-0.0217,-0.0161,-0.0095,-0.0047,-0.0027,0.0003,0.0048,0.0057,0.0068,0.0079,0.0084,0.0128,0.0137,0.003,0.003,0.003,0.003,0,0,-0.0424,-0.0429,-0.0434,-0.0444,-0.041,-0.0403,-0.0374,-0.0329,-0.0302,-0.0243,-0.0204,-0.0129,-0.0085,-0.0058,-0.0005,0.0043,0.0108,0.0062,0.0064,0.0112,0.0216,0.026,0.0275,0.013,0.0132,0.0133,0.0239,0,-0.047,-0.0515,-0.0494,-0.052,-0.0535,-0.0476,-0.0453,-0.04,-0.0339,-0.0281,-0.0192,-0.014,-0.0098,-0.0067,-0.0009,0.0082,0.013,0.0078,0.0195,0.0198,0.0245,0.0286,0.0265,0.0361,0.0248,0.0249,0.025,0,-0.0522,-0.0545,-0.059,-0.0589,-0.0588,-0.0586,-0.0532,-0.0505,-0.04,-0.0351,-0.027,-0.0195,-0.0097,-0.0072,0.0082,0.0046,0.012,0.0187,0.0194,0.0237,0.026,0.0335,0.0382,0.0266,0.0264,0.0263,0.0262,0,-0.058,-0.0609,-0.0649,-0.0652,-0.0636,-0.0633,-0.0615,-0.053,-0.0503,-0.0392,-0.0351,-0.0225,-0.015,-0.0045,0.0104,0.0092,0.0271,0.0274,0.0382,0.0386,0.0391,0.0394,0.0367,0.0367,0.0367,0.0367,0.0366,0,-0.0639,-0.0669,-0.0683,-0.0706,-0.0738,-0.0701,-0.07,-0.0649,-0.0574,-0.0541,-0.04,-0.0322,-0.014,-0.0007,0.0101,0.0282,0.0272,0.039,0.0423,0.0391,0.0392,0.032,0.0313,0.0371,0.037,0.0369,0.0368,0,-0.0694,-0.0705,-0.0753,-0.0764,-0.0771,-0.0794,-0.0782,-0.077,-0.0685,-0.0633,-0.0602,-0.0386,-0.0186,-0.0007,0.0199,0.0292,0.0444,0.05,0.0452,0.0478,0.0521,0.0512,0.0635,0.0638,0.064,0.0642,0.0643,0,-0.0726,-0.0761,-0.0809,-0.0846,-0.0857,-0.0884,-0.0897,-0.0838,-0.0817,-0.0667,-0.0638,-0.0413,-0.0189,0.0153,0.0332,0.0549,0.0525,0.0629,0.0607,0.0531,0.0552,0.054,0.0528,0.0615,0.0616,0.0617,0.0618,0,-0.0783,-0.0801,-0.084,-0.0927,-0.0966,-0.1007,-0.1017,-0.1017,-0.0933,-0.0828,-0.0639,-0.0432,-0.0065,0.0247,0.0526,0.0623,0.0595,0.0657,0.0609,0.0549,0.0521,0.0537,0.0526,0.0626,0.0625,0.0625,0.0624,0.0624,-0.0822,-0.0873,-0.0935,-0.1008,-0.1064,-0.1124,-0.1132,-0.1093,-0.1025,-0.083,-0.0631,-0.0255,-0.0002,0.0479,0.0623,0.0722,0.072,0.0737,0.073,0.0723,0.0701,0.0679,0.0809,0.0809,0.0809,0.0809,0.0809,0,-0.0893,-0.0947,-0.1016,-0.1115,-0.1186,-0.1193,-0.12,-0.116,-0.1049,-0.0759,-0.048,-0.0134,0.0265,0.0502,0.0696,0.0819,0.0773,0.0812,0.0732,0.0724,0.0717,0.069,0.0797,0.0798,0.0798,0.0798,0,0,-0.0944,-0.1025,-0.1059,-0.1194,-0.1261,-0.1332,-0.1322,-0.1195,-0.0969,-0.0663,-0.034,0.007,0.0373,0.0489,0.0626,0.0737,0.0692,0.0727,0.0727,0.061,0.0601,0.0667,0.0616,0,0,0,0,0]}],[{"header":{"parameterUnit":"m.s-1","parameterCategory":2,"la1":30.2991,"la2":30.254,"lo1":-89.0895,"lo2":-89.0444,"dy":0.0017,"dx":0.0017,"nx":28,"ny":28,"refTime":"2024-07-02T21:00:00:Z","depth":"4","parameterNumber":2,"parameterNumberName":"U-component_of_CURRENTS"},"data":[0,0,0,0,0,0,0,0,0,0,0,0,0,0,0,0,0,0,0,0,0,0,0,0,0,0,0,0,0,0,0,0,0,0,0,0,0,0,0,0,0,0,0,0,0,0,0,0,0,0,0,0,0,0,0,0,0,0,-0.1633,-0.1634,0,-0.1714,-0.1715,-0.1716,-0.1763,-0.1763,-0.1764,-0.1764,-0.1799,-0.18,-0.18,0,0,0,0,0,0,0,0,0,0,0,0,0,-0.153,-0.1532,-0.1633,-0.1634,-0.1635,-0.1714,-0.1715,-0.1716,-0.1763,-0.1763,-0.1764,-0.1764,-0.1799,-0.1799,-0.18,0,0,0,0,0,0,0,0,0,0,0,0,0,-0.1589,-0.1532,-0.1633,-0.1669,-0.1673,-0.1714,-0.1715,-0.1716,-0.1763,-0.1763,-0.1764,-0.1764,-0.1798,-0.1799,-0.18,-0.1799,0,0,-0.1804,-0.1804,0,0,0,0,0,0,0,0,-0.1585,-0.1592,-0.1662,-0.1666,-0.1671,-0.173,-0.1692,-0.1742,-0.1763,-0.1728,-0.1764,-0.1764,-0.1772,-0.1775,-0.1789,-0.1801,-0.1802,-0.1804,-0.1804,-0.1805,-0.1805,0,0,0,0,0,0,0,-0.1581,-0.1589,-0.1664,-0.1663,-0.1669,-0.1685,-0.1693,-0.1702,-0.1745,-0.1731,-0.1735,-0.1745,-0.1774,-0.1788,-0.179,-0.1803,-0.1804,-0.1805,-0.1805,-0.1806,-0.1872,-0.1873,0,0,0,0,0,0,-0.1572,-0.1585,-0.1662,-0.1667,-0.1629,-0.1686,-0.1696,-0.171,-0.1746,-0.1753,-0.1745,-0.1747,-0.1786,-0.1789,-0.1791,-0.1856,-0.1805,-0.1806,-0.1806,-0.1871,-0.1872,-0.1873,0,0,0,0,0,0,-0.157,-0.1578,-0.1658,-0.1628,-0.164,-0.1688,-0.1703,-0.1711,-0.1753,-0.1757,-0.1763,-0.1781,-0.1786,-0.179,-0.1823,-0.1855,-0.1806,-0.1807,-0.1869,-0.1871,-0.1873,-0.1944,0,0,0,0,0,0,-0.1566,-0.1577,-0.1599,-0.1628,-0.1641,-0.1702,-0.1703,-0.1712,-0.1757,-0.1762,-0.1789,-0.1792,-0.1787,-0.1822,-0.1824,-0.1856,-0.1808,-0.1868,-0.187,-0.1872,-0.194,-0.1948,-0.1954,0,0,0,0,0,-0.1562,-0.1586,-0.1599,-0.1609,-0.1665,-0.1704,-0.1713,-0.1747,-0.1759,-0.1784,-0.1802,-0.1792,-0.1837,-0.1824,-0.1827,-0.1859,-0.1867,-0.187,-0.1872,-0.1937,-0.1946,-0.1954,0,0,0,0,0,0,-0.1556,-0.1594,-0.1609,-0.1645,-0.1681,-0.1713,-0.1743,-0.1763,-0.1799,-0.1809,-0.1809,-0.1813,-0.1851,-0.1845,-0.183,-0.1883,-0.1849,-0.1853,-0.1898,-0.1907,-0.1914,-0.1913,-0.1809,0,0,0,0,0,-0.1563,-0.1591,-0.1627,-0.1659,-0.1679,-0.1716,-0.1742,-0.1766,-0.1795,-0.1813,-0.1832,-0.1848,-0.186,-0.1876,-0.1883,-0.1917,-0.189,-0.1938,-0.1945,-0.1951,-0.1952,-0.1938,-0.1944,-0.1882,-0.1882,-0.1882,0,0,-0.1569,-0.1594,-0.1612,-0.166,-0.1691,-0.1731,-0.1734,-0.1782,-0.1821,-0.1808,-0.1871,-0.1874,-0.1873,-0.1909,-0.1926,-0.1912,-0.1956,-0.1954,-0.196,-0.1957,-0.1941,-0.1947,-0.1952,-0.1884,-0.1883,-0.1883,0,0,-0.1586,-0.1619,-0.1648,-0.1682,-0.1734,-0.176,-0.1779,-0.1828,-0.186,-0.191,-0.1908,-0.1931,-0.1963,-0.1967,-0.1971,-0.2021,-0.199,-0.2029,-0.2074,-0.2061,-0.2066,-0.2069,-0.2045,-0.2046,-0.2038,-0.2039,-0.2039,0,-0.1595,-0.1635,-0.1664,-0.1701,-0.1736,-0.1775,-0.1817,-0.1855,-0.1912,-0.1933,-0.194,-0.1981,-0.1987,-0.2015,-0.204,-0.2038,-0.2021,-0.2043,-0.207,-0.2073,-0.2076,-0.205,-0.205,-0.2042,-0.2042,-0.2042,-0.2041,0,-0.1624,-0.1672,-0.1694,-0.1754,-0.1794,-0.1839,-0.1889,-0.1937,-0.1975,-0.2002,-0.2047,-0.2056,-0.2075,-0.2087,-0.2086,-0.2114,-0.2093,-0.2076,-0.2047,-0.2086,-0.2056,-0.2055,-0.2048,-0.2046,-0.2045,-0.2044,0,0,-0.16,-0.1697,-0.1707,-0.1746,-0.1828,-0.1858,-0.193,-0.199,-0.203,-0.2079,-0.2116,-0.2152,-0.2152,-0.2156,-0.2155,-0.2158,-0.2171,-0.2139,-0.2137,-0.2114,-0.2138,-0.1984,-0.1968,-0.2163,-0.2163,-0.2163,-0.2109,0,-0.1618,-0.169,-0.1739,-0.1817,-0.1858,-0.1921,-0.1981,-0.204,-0.2088,-0.2133,-0.2146,-0.2179,-0.2179,-0.2193,-0.2199,-0.2174,-0.2172,-0.2186,-0.2104,-0.2101,-0.1959,-0.1962,-0.2164,-0.2108,-0.2108,-0.2108,-0.2108,0,-0.1624,-0.1673,-0.1748,-0.1847,-0.1871,-0.1927,-0.2016,-0.2074,-0.2142,-0.2177,-0.2209,-0.2218,-0.2239,-0.2228,-0.2207,-0.2219,-0.219,-0.2166,-0.2163,-0.1991,-0.1945,-0.206,-0.2105,-0.2105,-0.2105,-0.2106,-0.2106,0,-0.1568,-0.1678,-0.1737,-0.1772,-0.1887,-0.1936,-0.1998,-0.2083,-0.2124,-0.2197,-0.2223,-0.2248,-0.2255,-0.2232,-0.2194,-0.2208,-0.2147,-0.215,-0.1981,-0.197,-0.2095,-0.2091,-0.2126,-0.2126,-0.2127,-0.2127,-0.2127,0,-0.1547,-0.1599,-0.1721,-0.1748,-0.1817,-0.1911,-0.198,-0.2049,-0.213,-0.2155,-0.2234,-0.2237,-0.2259,-0.2228,-0.2194,-0.2065,-0.214,-0.1977,-0.194,-0.2126,-0.2127,-0.2094,-0.2091,-0.2125,-0.2125,-0.2126,-0.2126,0,-0.1471,-0.1556,-0.1626,-0.1752,-0.1791,-0.1835,-0.1954,-0.1989,-0.2096,-0.2128,-0.215,-0.2223,-0.2172,-0.2157,-0.2105,-0.2037,-0.1949,-0.1887,-0.2077,-0.2054,-0.1786,-0.1788,-0.1693,-0.1687,-0.1682,-0.1678,-0.1674,0,-0.1436,-0.1466,-0.1597,-0.1622,-0.1682,-0.1764,-0.1808,-0.1943,-0.1973,-0.2089,-0.2077,-0.2088,-0.2101,-0.1902,-0.1917,-0.1809,-0.1789,-0.1755,-0.1784,-0.1765,-0.174,-0.175,-0.1758,-0.1666,-0.1665,-0.1663,-0.1662,0,-0.1351,-0.141,-0.1454,-0.1515,-0.1569,-0.1623,-0.1701,-0.171,-0.1843,-0.1964,-0.1939,-0.1908,-0.184,-0.1784,-0.1703,-0.1639,-0.1785,-0.1702,-0.1713,-0.174,-0.1731,-0.1714,-0.1728,-0.1645,-0.1647,-0.1649,-0.165,0,-0.1273,-0.1279,-0.1337,-0.1376,-0.144,-0.145,-0.1517,-0.1549,-0.1602,-0.1748,-0.1727,-0.1747,-0.1813,-0.1693,-0.1621,-0.1533,-0.1516,-0.1492,-0.1514,-0.1534,-0.1503,-0.1469,-0.1257,0,0,0,0,0,-0.1183,-0.1165,-0.1189,-0.122,-0.1282,-0.1318,-0.1423,-0.1496,-0.1632,-0.1562,-0.1644,-0.1575,-0.1493,-0.1516,-0.138,-0.1519,-0.1503,-0.1359,-0.1486,-0.1547,-0.1567,-0.1543,0,0,0,0,0,0,-0.111,-0.1122,-0.1133,-0.1081,-0.1074,-0.1122,-0.1181,-0.1278,-0.1259,-0.1404,-0.1355,-0.1478,-0.1399,-0.1515,-0.1342,-0.1342,-0.139,-0.1385,-0.1381,-0.1535,-0.1554,-0.157,-0.1553,0,0,0,0,0]},{"header":{"parameterUnit":"m.s-1","parameterCategory":2,"la1":30.2991,"la2":30.254,"lo1":-89.0895,"lo2":-89.0444,"dy":0.0017,"dx":0.0017,"nx":28,"ny":28,"refTime":"2024-07-02T21:00:00:Z","depth":"4","parameterNumber":3,"parameterNumberName":"V-component_of_CURRENTS"},"data":[0,0,0,0,0,0,0,0,0,0,0,0,0,0,0,0,0,0,0,0,0,0,0,0,0,0,0,0,0,0,0,0,0,0,0,0,0,0,0,0,0,0,0,0,0,0,0,0,0,0,0,0,0,0,0,0,0,0,-0.0156,-0.0156,0,-0.0105,-0.0105,-0.0104,-0.0062,-0.0061,-0.0061,-0.0061,-0.0034,-0.0034,-0.0034,0,0,0,0,0,0,0,0,0,0,0,0,0,-0.0183,-0.0183,-0.0156,-0.0156,-0.0155,-0.0105,-0.0104,-0.0104,-0.0062,-0.0061,-0.0061,-0.0061,-0.0034,-0.0034,-0.0034,0,0,0,0,0,0,0,0,0,0,0,0,0,-0.0155,-0.0183,-0.0156,-0.0129,-0.0126,-0.0105,-0.0104,-0.0103,-0.0062,-0.0061,-0.0061,-0.006,-0.0035,-0.0034,-0.0033,-0.004,0,0,-0.0032,-0.0031,0,0,0,0,0,0,0,0,-0.0156,-0.0154,-0.0134,-0.0131,-0.0128,-0.009,-0.0104,-0.0084,-0.0062,-0.0085,-0.0061,-0.006,-0.0057,-0.0054,-0.0043,-0.0038,-0.0037,-0.0032,-0.0031,-0.0031,-0.0031,0,0,0,0,0,0,0,-0.0158,-0.0155,-0.0135,-0.0133,-0.013,-0.0108,-0.0104,-0.01,-0.0074,-0.0083,-0.008,-0.0077,-0.0055,-0.0044,-0.0043,-0.0037,-0.0032,-0.0031,-0.0031,-0.003,-0.004,-0.004,0,0,0,0,0,0,-0.017,-0.0158,-0.0136,-0.0133,-0.0143,-0.0108,-0.0103,-0.0102,-0.0073,-0.0068,-0.0077,-0.0075,-0.0045,-0.0043,-0.0042,-0.0029,-0.0031,-0.003,-0.003,-0.0039,-0.004,-0.0041,0,0,0,0,0,0,-0.0171,-0.0168,-0.0138,-0.0145,-0.014,-0.0109,-0.0107,-0.0101,-0.0091,-0.0069,-0.0064,-0.0073,-0.0045,-0.0042,-0.0031,-0.0029,-0.003,-0.003,-0.0039,-0.0039,-0.004,-0.0016,0,0,0,0,0,0,-0.0172,-0.0169,-0.0174,-0.0146,-0.014,-0.0132,-0.0108,-0.0101,-0.009,-0.0086,-0.0064,-0.006,-0.0044,-0.0032,-0.0031,-0.0028,-0.0029,-0.0038,-0.0039,-0.004,-0.0016,-0.0016,-0.0016,0,0,0,0,0,-0.0173,-0.0183,-0.0175,-0.0172,-0.0147,-0.0132,-0.0127,-0.0102,-0.009,-0.009,-0.0066,-0.0061,-0.0039,-0.0032,-0.003,-0.0027,-0.0037,-0.0039,-0.004,-0.0016,-0.0016,-0.0016,0,0,0,0,0,0,-0.0197,-0.0179,-0.0169,-0.0174,-0.0157,-0.0126,-0.0125,-0.0107,-0.0088,-0.0086,-0.0061,-0.0056,-0.005,-0.0048,-0.0041,-0.0037,-0.0041,-0.0042,-0.0024,-0.0024,-0.0024,-0.003,-0.0029,0,0,0,0,0,-0.0206,-0.021,-0.0186,-0.0191,-0.0185,-0.0156,-0.0148,-0.0131,-0.011,-0.01,-0.0081,-0.0068,-0.0055,-0.0046,-0.0042,-0.0034,-0.0011,-0.0037,-0.0037,-0.0037,-0.0043,0.0013,0.0019,-0.0045,-0.0045,-0.0045,0,0,-0.0218,-0.0209,-0.0211,-0.0197,-0.0182,-0.0179,-0.015,-0.0143,-0.0134,-0.0103,-0.0089,-0.0071,-0.0056,-0.0043,-0.0041,-0.0038,-0.0007,-0.0038,-0.0038,-0.0044,0.0013,0.0019,0.0025,-0.0046,-0.0046,-0.0046,0,0,-0.0246,-0.0236,-0.0248,-0.0238,-0.0223,-0.0201,-0.0202,-0.0173,-0.0154,-0.014,-0.0112,-0.0084,-0.0078,-0.0046,-0.0035,-0.0037,-0.0013,-0.005,-0.0043,0.0013,0.0019,0.0025,0.0069,0.0079,-0.0042,-0.0042,-0.0042,0,-0.0261,-0.0273,-0.0249,-0.0258,-0.0255,-0.0215,-0.0224,-0.0198,-0.0167,-0.0148,-0.0142,-0.0093,-0.0076,-0.0036,-0.0034,-0.0033,-0.0006,-0.0036,0.0017,0.0023,0.0029,0.0072,0.0083,-0.0041,-0.0041,-0.0042,-0.0042,0,-0.0294,-0.0305,-0.0313,-0.0309,-0.0299,-0.0303,-0.0266,-0.0247,-0.022,-0.0186,-0.0147,-0.0105,-0.0073,-0.0061,-0.0047,0.0,0.0005,0.001,0.0025,0.0037,0.0081,0.0092,-0.004,-0.004,-0.0041,-0.0041,0,0,-0.0326,-0.0336,-0.034,-0.035,-0.0329,-0.0325,-0.0304,-0.0269,-0.0245,-0.0202,-0.0163,-0.012,-0.0083,-0.0069,-0.0033,0.0021,0.0095,0.003,0.0033,0.0088,0.0212,0.0195,0.0206,0.0116,0.0118,0.0119,0.0229,0,-0.0361,-0.0398,-0.0385,-0.0409,-0.0422,-0.038,-0.0363,-0.0322,-0.0273,-0.0222,-0.0151,-0.0114,-0.0089,-0.0066,-0.0005,0.0066,0.0122,0.0063,0.0177,0.018,0.0178,0.0217,0.0124,0.0237,0.0239,0.0241,0.0243,0,-0.0398,-0.0419,-0.0458,-0.0461,-0.0461,-0.0465,-0.0422,-0.0402,-0.0313,-0.0271,-0.0199,-0.0142,-0.0053,-0.004,0.0104,0.0066,0.0131,0.019,0.0196,0.0177,0.0184,0.0218,0.0262,0.026,0.0259,0.0258,0.0257,0,-0.0437,-0.0466,-0.0502,-0.0506,-0.05,-0.0503,-0.0492,-0.0423,-0.0399,-0.03,-0.0259,-0.0146,-0.0084,0.0016,0.0135,0.0123,0.0294,0.0295,0.0345,0.0344,0.0316,0.0309,0.0392,0.0392,0.0391,0.0391,0.0391,0,-0.0475,-0.0504,-0.053,-0.0551,-0.0585,-0.0558,-0.0561,-0.0519,-0.0452,-0.0413,-0.0296,-0.0226,-0.0066,0.0053,0.0145,0.0281,0.0305,0.0353,0.0377,0.0322,0.0313,0.0325,0.0316,0.0395,0.0394,0.0393,0.0393,0,-0.051,-0.0527,-0.0574,-0.0596,-0.0609,-0.0635,-0.0635,-0.0622,-0.0546,-0.0486,-0.0459,-0.0275,-0.0106,0.0049,0.0234,0.0294,0.0418,0.0455,0.0387,0.0403,0.0429,0.0419,0.0528,0.0528,0.0529,0.0529,0.0529,0,-0.053,-0.0562,-0.0623,-0.0663,-0.0683,-0.0716,-0.0733,-0.0684,-0.066,-0.0514,-0.0482,-0.0294,-0.0164,0.0103,0.0254,0.0445,0.0458,0.0509,0.0468,0.0433,0.0446,0.0436,0.0426,0.053,0.053,0.053,0.053,0,-0.0568,-0.0596,-0.0636,-0.0725,-0.0771,-0.081,-0.0826,-0.0814,-0.073,-0.066,-0.0481,-0.0311,-0.0103,0.011,0.0266,0.0392,0.0469,0.0513,0.0513,0.0475,0.0437,0.0447,0.0437,0.0531,0.0531,0.0531,0.0531,0,-0.0601,-0.0645,-0.0708,-0.0776,-0.0844,-0.0883,-0.0883,-0.0831,-0.079,-0.0619,-0.056,-0.031,-0.0151,0.0084,0.0221,0.0356,0.0378,0.0386,0.0393,0.0393,0.0313,0.0242,0.0308,0,0,0,0,0,-0.063,-0.0684,-0.0755,-0.0833,-0.0897,-0.0928,-0.0932,-0.0908,-0.0823,-0.071,-0.0631,-0.0433,-0.015,-0.0003,0.0129,0.0195,0.037,0.0348,0.0373,0.0539,0.0537,0.0464,0,0,0,0,0,0,-0.066,-0.0729,-0.076,-0.0857,-0.0914,-0.0975,-0.0977,-0.0921,-0.0839,-0.0724,-0.0561,-0.0437,-0.0157,-0.0228,0.0123,0.017,0.0193,0.0498,0.05,0.054,0.0538,0.0537,0.0461,0,0,0,0,0]}]]